When you browse on this site, cookies collect data to enhance your experience and personalize the content and advertising you see.
Visit our Privacy Policy to learn more. By continuing to use the site, you agree to this use of cookies and data.
  • In Norway
  • List of Countries
  • For 7 days
  • Water Temperature
  • Satellite Maps
  • Weather Map
  • Weather Widgets
  • user-avatar
    Login

    Hourly Weather Konstantyna

    Today, 22 January, Tuesday

    Time Temperature Precipitation Wind Pressure Humidity
    00:00 +5°C° 0 mm 1 mps 707 mmHg 96%
    01:00 +4°C° 0 mm 1 mps 706 mmHg 96%
    02:00 +4°C° 0 mm 1 mps 706 mmHg 96%
    03:00 +4°C° 0 mm 1 mps 706 mmHg 96%
    04:00 +4°C° 0 mm 1 mps 706 mmHg 95%
    05:00 +4°C° 0 mm 1 mps 706 mmHg 94%
    06:00 +4°C° 0 mm 1 mps 706 mmHg 94%
    07:00 +5°C° 0 mm 1 mps 706 mmHg 88%
    08:00 +6°C° 0 mm 1 mps 706 mmHg 82%
    09:00 +7°C° 0 mm 1 mps 707 mmHg 77%
    10:00 +8°C° 0.1 mm 1 mps 707 mmHg 71%
    11:00 +8°C° 0.1 mm 2 mps 706 mmHg 66%
    12:00 +9°C° 0.1 mm 2 mps 706 mmHg 61%
    13:00 +8°C° 0.3 mm 2 mps 706 mmHg 61%
    14:00 +8°C° 0.3 mm 2 mps 705 mmHg 62%
    15:00 +8°C° 0.3 mm 3 mps 705 mmHg 63%
    16:00 +7°C° 0.1 mm 2 mps 705 mmHg 70%
    17:00 +6°C° 0.1 mm 1 mps 704 mmHg 77%
    18:00 +4°C° 0.1 mm 0 mps 704 mmHg 84%
    19:00 +5°C° 0 mm 1 mps 704 mmHg 84%
    20:00 +4°C° 0 mm 1 mps 704 mmHg 85%
    21:00 +4°C° 0 mm 1 mps 703 mmHg 86%
    22:00 +4°C° 0 mm 1 mps 703 mmHg 85%
    23:00 +3°C° 0 mm 2 mps 703 mmHg 84%

    Tomorrow, 23 January, Wednesday

    Time Temperature Precipitation Wind Pressure Humidity
    00:00 +3°C° 0 mm 2 mps 702 mmHg 82%
    01:00 +3°C° 0 mm 2 mps 702 mmHg 80%
    02:00 +3°C° 0 mm 2 mps 701 mmHg 78%
    03:00 +2°C° 0 mm 3 mps 701 mmHg 76%
    04:00 +2°C° 0 mm 3 mps 700 mmHg 77%
    05:00 +1°C° 0 mm 3 mps 700 mmHg 78%
    06:00 +1°C° 0 mm 3 mps 699 mmHg 79%
    07:00 +3°C° 0.1 mm 4 mps 699 mmHg 77%
    08:00 +3°C° 0.1 mm 5 mps 700 mmHg 75%
    09:00 +5°C° 0.1 mm 5 mps 700 mmHg 72%
    10:00 +5°C° 0 mm 6 mps 699 mmHg 68%
    11:00 +7°C° 0 mm 6 mps 699 mmHg 65%
    12:00 +8°C° 0 mm 6 mps 699 mmHg 61%
    13:00 +8°C° 0.1 mm 6 mps 698 mmHg 61%
    14:00 +7°C° 0.1 mm 6 mps 698 mmHg 62%
    15:00 +7°C° 0.1 mm 5 mps 697 mmHg 63%
    16:00 +7°C° 0.6 mm 6 mps 696 mmHg 67%
    17:00 +5°C° 0.6 mm 7 mps 695 mmHg 72%
    18:00 +4°C° 0.6 mm 7 mps 694 mmHg 77%
    19:00 +4°C° 1.1 mm 7 mps 694 mmHg 81%
    20:00 +4°C° 1.1 mm 7 mps 694 mmHg 84%
    21:00 +4°C° 1.1 mm 6 mps 694 mmHg 88%
    22:00 +4°C° 2 mm 7 mps 694 mmHg 88%
    23:00 +4°C° 2 mm 8 mps 694 mmHg 89%

    Day after tomorrow, 24 January, Thursday

    Time Temperature Precipitation Wind Pressure Humidity
    00:00 +3°C° 2 mm 10 mps 694 mmHg 89%
    01:00 +1°C° 2 mm 8 mps 694 mmHg 90%
    02:00 +1°C° 2 mm 6 mps 694 mmHg 92%
    03:00 0°C° 2 mm 4 mps 694 mmHg 93%
    04:00 0°C° 1.2 mm 5 mps 694 mmHg 93%
    05:00 0°C° 1.2 mm 5 mps 693 mmHg 93%
    06:00 -1°C° 1.2 mm 6 mps 693 mmHg 92%
    07:00 -1°C° 0.4 mm 7 mps 693 mmHg 90%
    08:00 -1°C° 0.4 mm 8 mps 693 mmHg 87%
    09:00 -2°C° 0.4 mm 10 mps 693 mmHg 84%
    10:00 -2°C° 1.6 mm 10 mps 694 mmHg 88%
    11:00 -2°C° 1.6 mm 11 mps 694 mmHg 92%
    12:00 -2°C° 1.6 mm 11 mps 694 mmHg 95%
    13:00 -2°C° 4.9 mm 11 mps 694 mmHg 96%
    14:00 -2°C° 4.9 mm 11 mps 695 mmHg 97%
    15:00 -1°C° 4.9 mm 11 mps 695 mmHg 98%
    16:00 -2°C° 1.1 mm 10 mps 696 mmHg 97%
    17:00 -1°C° 1.1 mm 9 mps 697 mmHg 96%
    18:00 -1°C° 1.1 mm 8 mps 697 mmHg 95%
    19:00 -1°C° 0.2 mm 8 mps 698 mmHg 95%
    20:00 -1°C° 0.2 mm 7 mps 698 mmHg 95%
    21:00 -1°C° 0.2 mm 7 mps 699 mmHg 94%
    22:00 -1°C° 0.3 mm 7 mps 699 mmHg 95%
    23:00 -1°C° 0.3 mm 7 mps 699 mmHg 96%

    25 January, Friday

    Time Temperature Precipitation Wind Pressure Humidity
    00:00 -1°C° 0.3 mm 6 mps 700 mmHg 97%
    01:00 -1°C° 0.4 mm 6 mps 700 mmHg 97%
    02:00 -1°C° 0.4 mm 6 mps 700 mmHg 97%
    03:00 -1°C° 0.4 mm 6 mps 700 mmHg 97%
    04:00 -1°C° 0.3 mm 6 mps 700 mmHg 96%
    05:00 -1°C° 0.3 mm 6 mps 701 mmHg 95%
    06:00 -1°C° 0.3 mm 6 mps 701 mmHg 93%
    07:00 -1°C° 0.2 mm 7 mps 702 mmHg 93%
    08:00 0°C° 0.2 mm 7 mps 703 mmHg 93%
    09:00 0°C° 0.2 mm 7 mps 703 mmHg 94%
    10:00 0°C° 0.2 mm 8 mps 703 mmHg 92%
    11:00 0°C° 0.2 mm 9 mps 704 mmHg 90%
    12:00 0°C° 0.2 mm 10 mps 704 mmHg 89%
    13:00 0°C° 0.1 mm 10 mps 704 mmHg 87%
    14:00 0°C° 0.1 mm 10 mps 704 mmHg 86%
    15:00 0°C° 0.1 mm 9 mps 704 mmHg 85%
    16:00 0°C° 0.2 mm 7 mps 704 mmHg 86%
    17:00 0°C° 0.2 mm 5 mps 703 mmHg 88%
    18:00 +1°C° 0.2 mm 3 mps 703 mmHg 90%
    19:00 0°C° 0.1 mm 3 mps 703 mmHg 90%
    20:00 0°C° 0.1 mm 3 mps 703 mmHg 90%
    21:00 0°C° 0.1 mm 3 mps 703 mmHg 90%
    22:00 0°C° 0.2 mm 3 mps 703 mmHg 91%
    23:00 +1°C° 0.2 mm 3 mps 702 mmHg 92%

    26 January, Saturday

    Time Temperature Precipitation Wind Pressure Humidity
    00:00 +1°C° 0.2 mm 3 mps 702 mmHg 93%
    01:00 +1°C° 1.6 mm 3 mps 701 mmHg 93%
    02:00 +1°C° 1.6 mm 3 mps 701 mmHg 94%
    03:00 +2°C° 1.6 mm 3 mps 701 mmHg 95%
    04:00 +1°C° 2.2 mm 4 mps 701 mmHg 96%
    05:00 +1°C° 2.2 mm 4 mps 701 mmHg 97%
    06:00 +3°C° 2.2 mm 4 mps 701 mmHg 98%
    07:00 +2°C° 1.4 mm 5 mps 702 mmHg 97%
    08:00 +2°C° 1.4 mm 5 mps 703 mmHg 96%
    09:00 +2°C° 1.4 mm 5 mps 704 mmHg 96%
    10:00 +2°C° 0.3 mm 6 mps 704 mmHg 93%
    11:00 +3°C° 0.3 mm 7 mps 704 mmHg 90%
    12:00 +3°C° 0.3 mm 7 mps 705 mmHg 88%
    13:00 +3°C° 0 mm 7 mps 705 mmHg 87%
    14:00 +4°C° 0 mm 7 mps 705 mmHg 85%
    15:00 +4°C° 0 mm 7 mps 705 mmHg 84%
    16:00 +3°C° 0.1 mm 5 mps 705 mmHg 87%
    17:00 +3°C° 0.1 mm 4 mps 705 mmHg 90%
    18:00 +3°C° 0.1 mm 2 mps 705 mmHg 93%
    19:00 +4°C° 0.1 mm 2 mps 705 mmHg 94%
    20:00 +4°C° 0.1 mm 2 mps 705 mmHg 94%
    21:00 +4°C° 0.1 mm 2 mps 706 mmHg 95%
    22:00 +3°C° 0 mm 2 mps 705 mmHg 94%
    23:00 +3°C° 0 mm 2 mps 705 mmHg 93%

    27 January, Sunday

    Time Temperature Precipitation Wind Pressure Humidity
    00:00 +2°C° 0 mm 2 mps 705 mmHg 93%
    01:00 +2°C° 0 mm 2 mps 705 mmHg 92%
    02:00 +2°C° 0 mm 2 mps 704 mmHg 91%
    03:00 +2°C° 0 mm 2 mps 704 mmHg 90%
    04:00 +2°C° 0 mm 2 mps 704 mmHg 89%
    05:00 +2°C° 0 mm 2 mps 704 mmHg 88%
    06:00 +2°C° 0 mm 2 mps 704 mmHg 87%
    07:00 +3°C° 0 mm 2 mps 704 mmHg 86%
    08:00 +5°C° 0 mm 2 mps 704 mmHg 85%
    09:00 +5°C° 0 mm 3 mps 704 mmHg 84%
    10:00 +7°C° 0 mm 3 mps 704 mmHg 79%
    11:00 +8°C° 0 mm 3 mps 704 mmHg 75%
    12:00 +9°C° 0 mm 3 mps 704 mmHg 71%
    13:00 +10°C° 0 mm 3 mps 703 mmHg 71%
    14:00 +10°C° 0 mm 3 mps 703 mmHg 70%
    15:00 +10°C° 0 mm 3 mps 702 mmHg 70%
    16:00 +8°C° 0 mm 2 mps 702 mmHg 74%
    17:00 +7°C° 0 mm 2 mps 702 mmHg 78%
    18:00 +7°C° 0 mm 1 mps 702 mmHg 83%
    19:00 +7°C° 0 mm 1 mps 702 mmHg 84%
    20:00 +6°C° 0 mm 1 mps 702 mmHg 86%
    21:00 +6°C° 0 mm 1 mps 702 mmHg 88%
    22:00 +6°C° 0.5 mm 1 mps 702 mmHg 89%
    23:00 +6°C° 0.5 mm 1 mps 701 mmHg 91%
    Show more